Погода Байрамалы

Погода Байрамалы : погода сейчас, прогноз погоды и архив. Всё, что Вы хотите узнать о погоде Байрамалы!

Поиск расширенной информации на нашем сайте:

Другие новости

Новости СМИ2

Главная страница сайта

Новости сайта

03.07.2017

Напоминаем, что на нашем специализированном сайте Метеоцентр.Азия вы можете получить высокодетализированные автоматические прогнозы погоды по пунктам России, СНГ и мира в авиационном формате (включающие направление и скорость ветра, видимость, явления погоды, количество и форму облачности, нижнюю и верхнюю границу облачности).


Погода Байрамалы - сегодня

Время (UTC), дата Ветер
(°,м/с) 
Видим.   Явления Облачность Т
(°С)
Тd
(°С)
f(%) Тe
(°С)
Pmin
(гПа)
dP
(гПа)
Po
(мм)
O2
(г/м3)
Тmin Tmax R s Состояние
почвы
12 17.02.18 050 (СВ) 4000 м    10/10 600 м 
[Sc]
+7.5 +1.3 65 +7  1027.9  -2.3  749  294           
15 17.02.18 050 (СВ) 4000 м    10/10 600 м 
[Sc]
+6.3 +1.6 72 +7  1027.6  -0.3  749  295    +8       
18 17.02.18 050 (СВ) 4000 м    4/0 средняя 
[Ac As]
+5.9 +1.7 74 +6  1026.8  -0.8  748  295    +8       
21 17.02.18 040 (СВ) 4000 м    4/0 средняя 
[Ac As]
+5.2 +1.7 78 +5  1025.4  -1.5  747  295           
00 18.02.18 040 (СВ) 4000 м    4/0 средняя 
[Ac As]
+4.9 +1.3 77 +5  1024.7  -0.7  746  295           
03 18.02.18 050 (СВ) 4000 м    8/0 средняя 
[Ac As]
+4.2 +1.7 84 +4  1024.4  -0.4             
06 18.02.18 050 (СВ) 4000 м    8/0 верхняя 
[Ci fib]
+8.2 +2.3 66 +8  1024.2  0.2  746  292  +4.2         
09 18.02.18 080 (В) 4000 м    6/0 верхняя 
[Ci fib]
+13.7 +1.7 44 +13  1020.5  744  285           
12 18.02.18 080 (В) 4000 м    9/0 верхняя 
[Ci fib]
+14.7 +1.3 40 +14  1018.1  -2.2  742  284           
15 18.02.18 040 (СВ) 4000 м    6/0 верхняя 
[Ci fib]
+12.2 -0.9 40 +12  1017.6  -0.8  742  286    +15.8       
18 18.02.18 060 (СВ) 4000 м    ясно 
+9.6 -1.2 47 +9  1016.6  -1.2  741  289    +15.8       
21 18.02.18 070 (В) 4000 м    ясно 
+7.4 +2.1 69 +7  1016.4  -0.5  741  290           
00 19.02.18 060 (СВ) 4000 м    10/0 средняя 
[Ac As]
+8 +1.3 63 +7  1012.4  -3.8  738  289           
03 19.02.18 060 (СВ) 4000 м    10/0 средняя 
[As op]
+8.8 +2.7 66 +8  1011.6  -0.7  750  293           
06 19.02.18 070 (В) 4000 м    10/0 средняя 
[As op]
+13.2 +3.4 51 +13  1011.2  737  283  +7.3         
09 19.02.18 тихо ()   4000 м    10/0 средняя 
[Ac As]
+19.2 +5.3 40 +19  1009.8  -0.7  737  276           
12 19.02.18 280 (З) 4000 м    10/10 600 м 
[Sc]
+15.8 +4.5 47 +16  1010.7  0.5  737  280           
15 19.02.18 340 (С) 4000 м    10/0 средняя 
[Ac As]
+10.3 +1.1 53 +10  1014.2  2.9  739  287    +20.2       
18 19.02.18 280 (З) 4000 м  {дождь}  10/10 600 м 
[Sc]
+8.6 +1.3 60 +9  1015.7  1.2  740  289    +20.2       
21 19.02.18 290 (З) 4000 м    10/10 600 м 
[Sc]
+7.2 +4 80 +7  1015.8  740  290           
00 20.02.18 270 (З) 4000 м  слаб. дождь  10/10 300 м 
[Ns]
+6.7 +5.8 94 +7  1017.5  1.7  741  291           
03 20.02.18 120 (ЮВ) 4000 м    3/0 средняя 
[Ac trans]
-2.2 -4.7 83 -2  1032.3  0.3             
06 20.02.18 280 (З) 4000 м    3/0 средняя 
[Ac As]
+5.1 -0.8 66 +5  1031.2  2.9  751  297  +1.8         
09 20.02.18 260 (З) 4000 м  в посл. час дождь  10/10 300 м 
[Frnb]
+8.1 +5.1 81 +7  1020.9  1.1  744  290           
12 20.02.18 270 (З) 4000 м    10/10 600 м 
[Sc]
+8.2 +4.6 78 +8  1021.2  0.3  744  290           
Время (UTC), дата Ветер
(°,м/с) 
Видим.   Явления Облачность Т
(°С)
Тd
(°С)
f(%) Тe
(°С)
Pmin
(гПа)
dP
(гПа)
Po
(мм)
O2
(г/м3)
Тmin Tmax R s Состояние
почвы

Для получения пояснительной информации подведите курсор к названию столбца.

ПОГОДА Байрамалы - архив

Всё, что Вы хотите узнать о погоде Байрамалы - удобно и подробно!

Выберите нужную дату (начиная с 1 января 2015* года) и нажмите кнопку "Найти".
Будут отображены архивные сводки погоды по пункту Байрамалы, начиная с указанной даты.


Отображать данные в формате CSV (для использования в таблицах Excel)


Внимание! Наш архив погоды предназначен исключительно для личного некоммерческого использования в познавательных целях. Если Вам необходимы официальные справки о состоянии погоды (для производственных, юридических, коммерческих и т.п. целей), обращайтесь в органы Росгидромета.

*Примечание: данная дата относится к архиву по метеостанциям СССР (Россия, СНГ, Балтия).
Архив по метеостанциям Зарубежной Европы и Азии (кроме Китая) хранится 10 дней, по другим регионам земного шара (Китай, Африка, Америка, Австралия, Океания) - 1 день.

Байрамалы - район местоположения метеостанции


Название, широта, долгота, высота метеостанции:
Байрамалы 37.6°ш. 62.2°д. 240 м над ур. моря [Туркменистан]

Дополнительная информация

В oтличие oт бoльшинства пoгoдных сайтoв мы публикуем пoдрoбную метеoинфoрмацию в детальнoм прoфессиoнальнoм фoрмате.

Характеристики температуры и влажнoсти вoздуха измеряются на высoте 2 м в тени вдали oт зданий и деревьев.
Скoрoсть ветра измеряется на высoте 10 м (на урoвне рoста челoвека скoрoсть ветра ниже в 1.5-2 раза). Если метеoстанция нахoдится в гoрoде или в лесу, тo скoрoсть ветра занижена на 2-4 м/с пo сравнению с oткрытым местoм. Скoрoсть ветра над акватoриями крупных рек и oзёр, а также на вершинах хoлмoв на 2-5 м/с выше, чем в oбычных услoвиях.
Атмoсфернoе давление в разных тoчках местнoсти мoжет значительнo oтличаться oт давления на метеoстанции, в зависимoсти oт услoвий рельефа (при пoдъёме на 10 м давление пoнижается примернo на 1 мм рт.ст.).